Miscellaneous Local Product
Issued by NWS Hastings, NE

Home | Current Version | Previous Version | Graphics & Text | Print | Product List | Glossary On
Versions: 1 2 3 4 5 6 7 8 9 10 11 12 13 14 15 16 17 18 19 20 21 22 23 24 25 26 27 28 29 30 31 32 33 34 35 36 37 38 39 40 41 42 43 44 45 46 47 48 49 50
000
AXUS43 KGID 211802
MISGRI

GID CWA HOURLY WEATHER ROUNDUP
NATIONAL WEATHER SERVICE HASTINGS NE
100 PM CDT MON JUL 21 2014

NOTE: "FAIR" INDICATES FEW OR NO CLOUDS BELOW 12,000 FEET WITH NO
SIGNIFICANT WEATHER AND/OR OBSTRUCTIONS TO VISIBILITY.

...SOUTH CENTRAL NEBRASKA...

CITY           SKY/WX    TMP DP  RH WIND       PRES   REMARKS
GRAND ISLAND   MOSUNNY   89  72  56 S8        29.88R HX  96
HASTINGS       MOSUNNY   93  66  40 SW9       29.89S HX  96
KEARNEY        MOSUNNY   93  70  46 S12       29.90S HX  99
ORD            NOT AVBL
YORK           PTSUNNY   86  75  70 SW8       29.87S HX  95
AURORA         MOSUNNY   88  74  62 SW8       29.88R HX  96
LEXINGTON      PTSUNNY   95  59  30 CALM      29.91R HX  94
HOLDREGE       MOSUNNY   91  65  41 SW6       29.92S HX  93
HEBRON         MOSUNNY   94  70  46 SW9G16    29.90S HX 100

...NEBRASKA PANHANDLE...

CITY           SKY/WX    TMP DP  RH WIND       PRES   REMARKS
CHADRON        SUNNY    101  44  14 NW24G33   29.90F HX  97
ALLIANCE       SUNNY     99  45  15 NW20G28   30.00R HX  95
SCOTTSBLUFF    SUNNY     96  53  23 NW12      30.02S HX  93
SIDNEY         MOSUNNY   99  43  14 W8        30.06F HX  95

...WESTERN AND NORTH CENTRAL NEBRASKA...

CITY           SKY/WX    TMP DP  RH WIND       PRES   REMARKS
VALENTINE      MOSUNNY   97  52  21 W16       29.86R HX  94
AINSWORTH      MOSUNNY   96  56  26 W6        29.88R HX  95
ONEILL         MOSUNNY   96  62  32 SW8       29.83S HX  96
BROKEN BOW     MOSUNNY   91  68  46 SW8       29.90R HX  95
IMPERIAL       MOSUNNY   91  57  31 NE5       29.99S
NORTH PLATTE   PTSUNNY   93  61  34 W8        29.93S HX  93
MCCOOK         PTSUNNY   90  63  40 SW7       29.95S HX  91

...EASTERN NEBRASKA...

CITY           SKY/WX    TMP DP  RH WIND       PRES   REMARKS
NORFOLK        PTSUNNY   90  74  59 S7        29.83F HX  99
SO SIOUX CITY  MOSUNNY   85  75  72 S12G21    29.84R HX  93
TEKAMAH        PTSUNNY   92  75  57 S16G22    29.85S HX 103
COLUMBUS       SUNNY     90  73  58 S8        29.85S HX  98
ALBION         MOSUNNY   87  69  54 CALM      29.85S HX  91
OMAHA EPPLEY   PTSUNNY   91  73  55 S15       29.86S HX  99
OFFUTT AFB     MOSUNNY   91  76  62 S13       29.87S HX 103
MILLARD        MOSUNNY   89  75  62 S8G17     29.86S HX  99
LINCOLN        MOSUNNY   93  71  48 SW13      29.87S HX 100
NEBRASKA CITY  MOSUNNY   91  71  52 SW17G28   29.90S HX  97
BEATRICE       PTSUNNY   87  73  63 SW17      29.90S HX  94
FALLS CITY     MOSUNNY   91  75  59 S13G22    29.92S HX 101

...NORTHERN KANSAS...

CITY           SKY/WX    TMP DP  RH WIND       PRES   REMARKS
GOODLAND       PTSUNNY   92  61  35 VRB5      30.03S HX  92
HILL CITY      SUNNY     99  69  37 SW9       29.93F HX 105
NORTON         CLEAR     97  61  30 S8        29.93S HX  97
PHILLIPSBURG   SUNNY     99  64  32 SW10      29.91S HX 101
SMITH CENTER   SUNNY     99  66  34 SW16G24   29.91S HX 102
BELOIT         SUNNY     77  50  38 S14G22    29.89S
HAYS           SUNNY     93  68  43 SW16      29.95F HX  97
RUSSELL        SUNNY     92  71  50 S17       29.94S HX  98
CONCORDIA      MOSUNNY   95  71  45 SW17G24   29.91F HX 102
SALINA         MOSUNNY   98  72  42 S16G22    29.93F HX 107
TOPEKA         MOSUNNY   92  73  53 S15       29.96F HX 100



USA.gov is the U.S. government's official web portal to all federal, state and local government web resources and services.